Dewpoint
66 65 66 66 65 65 65 65 65 65 65 65 65 64 63 63 62 62 62 61 62 62 61 61 61 59 58 56 54 54 54 55 56 55 54 53 53 52 51 49 47 48 48 47 46 47 47 46 46 47 48 50 48 46 45 46 48 48 48 48 48 47 47 47 44 45 45 44 46 40 40 37 35 34 37 40 42 42 45 43 45 44 43 42 42
65 65 65 65 65 65 65 65 64 64 65 64 63 63 63 63 62 61 61 62 62 61 59 59 58 57 55 54 54 52 53 53 54 53 51 51 52 52 50 47 47 48 49 46 48 49 48 45 44 45 45 45 46 42 44 46 46 46 46 48 47 47 47 47 44 43 43 42 44 40 38 38 36 33 35 39 40 42 37 38 42 42 42 40 40
64 64 64 65 66 65 65 64 64 64 64 63 62 62 62 62 62 61 61 61 62 62 58 58 57 55 54 54 52 52 52 52 54 52 51 50 49 50 50 49 48 47 46 46 46 48 48 48 46 47 48 47 47 48 48 47 47 46 46 48 48 48 48 47 46 43 42 42 40 37 38 40 38 33 35 38 42 44 39 39 40 43 43 41 41
64 64 64 65 66 65 64 64 64 64 63 62 61 61 61 61 61 61 61 62 62 61 59 57 56 54 54 53 52 52 52 52 51 49 49 49 47 47 47 48 47 46 46 45 46 46 46 46 47 47 47 47 46 47 47 47 47 47 48 48 48 48 47 47 45 45 42 43 42 36 40 38 36 33 39 40 40 42 41 41 42 41 41 43 40
63 64 65 65 65 65 65 64 64 63 62 62 61 61 60 61 61 60 61 61 61 61 60 59 56 54 54 52 51 51 51 50 49 49 50 49 47 47 46 46 47 47 48 47 48 46 46 46 46 47 48 47 46 45 46 47 46 47 47 46 47 48 48 47 45 44 43 41 42 42 40 36 37 37 34 37 39 40 40 40 41 38 39 40 43
64 64 65 65 65 64 64 64 63 62 62 61 61 60 60 60 60 61 61 60 60 61 58 57 54 52 52 51 50 50 49 49 47 47 46 47 48 48 48 47 46 45 46 45 45 47 45 44 44 44 45 46 47 47 47 47 48 48 48 48 47 47 48 47 43 43 43 42 39 39 39 38 35 37 32 37 39 39 39 39 40 38 39 39 41
63 64 64 64 64 63 63 63 62 61 61 61 60 60 59 60 60 60 60 59 59 58 57 55 55 52 51 51 50 50 48 47 48 47 46 46 47 47 47 46 47 46 45 44 45 42 39 40 40 41 42 43 44 44 46 47 48 48 49 48 47 47 47 46 42 42 40 39 39 39 37 36 36 34 33 37 39 40 39 39 38 38 39 39 41
63 63 64 63 62 62 62 62 61 61 60 60 59 59 59 59 59 59 58 58 58 57 55 54 54 52 51 50 50 50 48 47 46 46 46 47 47 46 46 47 46 46 45 42 40 38 38 38 39 40 40 41 41 42 44 46 46 45 46 47 48 46 45 45 42 38 38 39 38 38 38 35 34 35 37 37 37 39 41 41 38 38 39 39 40
63 63 62 62 62 61 61 60 60 60 59 58 58 58 58 58 58 58 58 57 57 56 54 53 52 51 50 49 48 49 49 48 48 47 47 47 48 46 46 45 45 44 42 40 38 37 37 39 40 41 44 44 44 44 44 45 43 42 43 45 47 47 44 43 43 40 37 37 37 40 37 36 35 35 34 35 36 38 40 41 40 38 38 39 40
63 63 62 61 61 61 60 59 59 59 58 58 58 58 58 58 57 56 56 56 56 55 53 52 51 50 49 48 48 50 50 51 49 46 47 47 46 47 47 46 45 43 42 38 36 36 38 40 43 45 45 45 43 41 40 41 43 43 41 41 43 46 45 43 42 41 38 36 37 37 36 35 34 34 35 36 38 39 40 41 39 37 38 37 39
62 62 61 61 61 60 59 58 58 58 58 57 57 57 57 57 56 56 56 56 57 54 53 50 50 50 48 47 47 49 47 47 41 40 41 43 47 47 46 45 44 43 40 37 36 38 38 39 42 43 45 44 42 40 39 39 39 39 40 42 43 42 43 45 43 41 40 37 37 36 36 35 35 35 36 36 37 38 40 41 41 38 36 35 33
61 61 60 60 60 58 58 58 57 57 57 56 56 56 56 56 55 55 55 55 56 54 52 50 50 50 48 47 48 45 44 41 38 39 40 41 44 47 46 45 44 42 39 38 39 40 41 42 42 45 44 42 41 41 42 39 38 38 38 38 38 38 40 41 42 42 41 38 36 36 36 36 35 37 37 36 36 37 39 41 40 37 36 35 34
61 60 59 59 58 58 58 57 56 56 56 56 56 56 56 55 54 54 54 55 52 52 51 50 49 49 48 47 44 44 43 39 37 38 37 38 40 44 44 44 42 40 39 39 40 42 44 46 45 47 43 44 45 44 42 42 41 40 40 41 41 41 36 36 37 44 44 40 38 37 37 38 38 39 40 39 39 36 37 39 40 37 36 36 36
59 59 58 58 57 57 57 56 56 56 56 56 56 55 55 54 54 54 53 52 51 51 50 50 49 48 48 46 44 44 42 39 37 37 37 36 36 39 43 45 44 43 43 44 45 44 44 43 43 43 45 46 48 46 46 44 43 43 44 46 43 45 39 37 37 38 39 41 39 38 39 39 39 40 42 41 40 37 37 37 39 37 36 37 38
58 58 57 57 57 56 56 55 55 55 55 55 55 54 54 53 53 52 51 51 50 49 49 49 49 49 48 45 43 43 45 37 36 36 36 36 36 39 45 45 44 45 44 44 44 44 44 44 45 45 45 40 40 40 39 43 46 46 47 41 38 40 40 39 40 39 39 41 39 39 40 42 41 42 42 42 41 41 40 39 40 38 37 39 37
57 57 56 56 56 56 55 54 54 54 54 54 54 53 52 52 51 51 51 50 50 50 49 49 48 47 46 45 43 42 42 36 36 36 36 35 38 45 46 45 44 43 44 45 44 43 42 42 42 43 43 40 36 35 37 41 44 46 45 42 41 41 42 44 40 40 43 42 41 41 41 44 41 43 43 41 41 41 42 40 40 36 36 34 33
56 56 56 56 55 56 55 54 54 54 54 53 52 52 51 51 51 50 50 50 49 48 47 47 46 44 44 45 45 41 40 37 36 36 36 36 40 43 44 42 43 43 43 43 43 43 44 40 40 41 41 37 36 33 34 38 44 43 42 42 44 44 42 42 36 35 35 35 36 37 37 37 36 36 37 37 38 40 40 40 34 34 34 32 32
56 56 56 56 55 55 54 53 53 53 53 52 52 51 51 51 50 50 49 49 48 47 46 45 44 43 42 43 41 39 39 40 36 36 36 36 40 46 42 41 42 41 42 43 41 40 42 46 41 40 40 37 34 33 34 38 43 44 42 44 42 42 42 45 43 40 36 35 35 35 35 35 35 36 36 37 37 39 40 39 35 34 34 34 31
56 55 55 54 54 54 53 53 53 53 52 52 52 51 51 51 51 51 50 48 47 46 45 43 43 42 41 41 44 40 39 38 36 35 36 37 40 44 39 39 41 41 42 42 40 38 35 38 40 39 37 35 33 34 34 37 40 44 43 40 39 39 41 40 42 42 42 42 40 39 39 40 40 39 41 40 39 41 40 42 36 34 33 33 33
55 55 55 54 53 53 53 52 52 52 51 52 52 51 51 50 50 50 49 47 46 45 44 42 42 41 40 40 41 40 39 39 39 35 36 36 37 39 46 39 39 40 39 38 38 38 35 34 37 33 33 33 33 33 33 34 36 41 43 40 39 41 39 39 40 41 40 40 39 41 39 42 45 44 38 47 47 47 39 38 37 37 35 33 33
54 54 54 53 52 52 52 52 53 52 52 52 52 52 51 50 50 50 48 47 46 45 44 43 42 41 38 38 38 40 40 39 39 36 36 35 36 37 42 40 38 35 34 34 34 36 34 32 33 35 33 32 33 33 34 34 34 42 43 38 37 42 35 37 38 42 39 41 39 38 38 35 35 35 34 34 35 37 38 39 36 36 36 35 32
54 54 53 53 52 52 52 53 53 53 52 52 52 51 51 50 50 50 48 47 46 45 45 43 41 39 38 38 39 38 40 42 39 36 35 34 34 35 36 41 36 34 31 30 29 31 31 32 31 35 32 32 31 32 34 34 34 41 40 29 30 32 36 37 35 34 36 37 34 33 35 33 33 36 34 33 34 37 38 37 36 36 37 36 34
54 54 53 52 52 52 52 52 52 53 52 51 50 50 50 49 50 49 48 47 45 45 44 43 41 39 38 41 38 36 37 38 38 37 35 34 35 35 34 37 38 41 34 32 30 31 34 35 36 35 33 32 30 32 33 34 34 37 29 29 32 32 34 34 33 35 38 37 38 36 37 33 33 33 33 32 34 36 37 37 36 37 37 37 36
54 53 52 52 52 52 53 53 52 52 51 50 50 49 49 49 49 49 47 45 44 44 42 43 41 41 42 43 37 34 35 36 37 37 36 35 35 34 34 33 35 41 46 41 37 37 35 33 33 32 33 33 32 32 33 34 34 32 29 30 31 32 33 33 33 38 37 34 36 35 35 32 34 33 32 34 35 38 38 36 36 38 38 36 37
53 52 52 52 52 52 53 53 51 51 51 50 49 49 49 49 48 47 47 45 43 43 43 42 41 41 40 40 36 34 34 36 39 37 35 35 35 34 34 33 34 37 43 41 39 38 34 33 32 32 32 33 32 32 32 32 31 31 31 31 35 33 31 33 37 38 35 33 31 35 33 32 34 34 36 39 37 38 36 38 37 38 39 37 37
52 51 51 52 52 52 52 51 50 50 50 49 49 49 49 48 47 47 45 44 46 47 46 43 39 38 41 37 36 35 35 36 38 39 37 37 36 34 34 34 34 34 35 33 33 32 31 31 32 33 33 33 38 36 36 35 34 32 31 32 35 31 32 33 34 38 31 31 32 32 33 33 35 35 39 39 35 35 35 34 34 36 35 33 35
52 52 52 52 52 52 51 50 49 50 49 49 49 49 48 48 47 45 43 43 43 44 44 40 38 37 38 37 36 35 34 34 35 36 36 37 36 36 35 34 34 32 30 30 31 29 30 32 30 32 31 32 33 35 35 37 37 35 28 29 32 32 37 38 35 38 33 34 33 33 34 33 37 36 37 35 34 34 35 32 31 32 33 32 33
52 51 52 52 52 51 50 45 47 49 48 48 48 48 47 47 45 44 43 43 42 42 41 41 38 38 38 37 36 34 33 32 32 33 33 33 34 31 35 36 35 36 32 33 32 33 32 32 33 35 37 38 35 33 32 33 31 29 31 31 31 33 34 36 33 38 36 36 34 37 35 37 36 33 34 34 34 33 35 33 33 32 33 31 31
51 51 51 51 51 50 50 49 49 49 48 48 48 47 46 46 46 46 46 45 43 42 41 40 39 39 40 38 36 34 32 30 31 33 34 33 33 33 34 36 36 40 39 34 35 35 34 34 34 35 33 32 31 31 29 29 30 30 35 33 35 36 35 30 34 36 36 36 36 36 33 34 35 34 33 33 35 32 33 34 33 34 33 32 29
51 51 51 51 50 50 50 49 49 48 48 46 43 40 34 35 39 48 45 41 39 38 38 40 40 40 40 39 37 34 33 33 33 32 33 33 32 31 32 33 35 35 35 32 33 32 33 32 33 31 33 33 31 30 31 30 30 31 33 24 31 32 32 35 35 34 36 37 34 33 35 34 34 35 32 33 33 33 33 32 32 33 33 30 30
51 51 50 50 48 49 49 48 48 47 47 45 44 41 40 37 34 35 36 37 36 35 36 37 36 36 40 39 37 34 34 33 32 32 33 33 32 32 32 32 32 32 33 32 35 33 31 31 31 31 31 33 33 33 33 32 29 27 32 28 38 31 28 38 34 34 32 31 33 34 35 32 34 34 32 33 34 32 34 33 32 32 31 31 30
51 50 49 49 47 47 48 48 47 47 46 46 44 42 41 39 37 34 34 35 35 35 35 35 36 37 38 39 39 37 33 32 33 34 34 34 33 33 32 32 32 31 31 33 31 30 32 32 32 33 33 32 31 28 32 31 30 28 28 34 31 31 32 32 34 37 34 34 29 29 31 32 34 30 31 32 29 32 33 32 32 31 31 31 31
51 50 49 49 48 46 46 47 47 47 46 45 45 44 42 39 37 36 35 34 35 35 35 35 36 36 36 36 35 33 33 33 33 34 34 33 33 33 33 33 32 31 29 29 27 27 31 33 34 31 32 28 32 31 30 33 33 31 31 29 28 31 35 34 32 38 33 33 30 32 31 31 29 29 30 30 30 30 31 31 32 31 31 31 30
51 50 49 48 48 47 47 47 47 46 46 44 44 44 43 41 40 37 35 35 35 34 34 34 34 34 34 34 33 33 33 33 33 33 32 32 32 32 32 33 34 34 32 31 31 30 34 32 31 29 29 31 33 30 29 29 32 32 31 33 33 34 37 36 36 33 33 33 32 30 31 31 29 30 30 31 31 30 29 29 31 30 30 30 30
50 44 41 43 47 47 47 47 46 46 46 45 43 42 43 42 40 38 37 36 37 35 34 34 34 33 33 33 33 33 33 33 32 32 32 32 33 33 32 31 29 32 35 36 35 31 30 31 30 31 33 30 30 31 31 34 33 32 31 32 32 35 35 34 35 34 32 34 31 31 29 30 32 31 29 29 29 30 30 30 30 31 31 31 31
50 46 47 46 47 47 47 46 46 46 46 46 43 42 46 45 40 44 45 45 40 36 34 34 33 33 33 33 33 32 32 32 32 32 32 32 33 32 30 29 28 30 31 28 28 31 32 33 32 32 34 35 34 33 32 34 35 34 33 34 32 31 32 30 31 32 33 30 30 30 30 30 31 30 30 29 32 30 29 30 30 30 30 30 30
48 46 46 46 47 47 46 46 45 46 42 44 44 46 46 49 45 46 46 47 44 39 35 34 33 33 33 33 32 33 33 33 33 33 33 33 33 31 30 29 29 28 27 25 25 27 29 31 32 33 35 34 35 34 33 34 36 35 33 33 34 33 34 31 29 28 30 29 30 31 31 31 31 30 28 27 28 29 30 30 31 31 30 31 31
48 46 46 47 47 47 46 45 45 40 45 44 46 48 46 45 43 46 45 46 46 43 38 37 34 31 30 30 33 31 32 33 33 32 32 31 30 31 29 31 27 27 28 25 26 27 27 29 33 34 36 35 38 36 35 34 35 34 32 31 30 33 33 30 27 31 30 30 30 30 30 29 28 29 29 29 29 29 30 30 31 31 31 31 31
48 42 40 40 42 47 46 45 46 50 48 45 42 41 39 44 44 44 45 44 43 43 38 36 35 33 32 31 30 32 29 27 28 27 29 29 30 30 29 29 29 28 27 26 27 25 26 27 31 34 36 38 37 35 35 34 36 34 34 31 31 33 29 29 31 31 30 29 29 28 28 29 30 30 29 30 30 30 30 31 31 31 31 30 31
47 45 42 40 46 45 45 44 46 45 41 39 39 39 41 41 42 42 44 44 44 43 39 40 37 35 33 31 30 29 28 28 28 28 29 29 29 28 28 29 32 30 31 30 28 27 27 29 33 32 36 39 37 33 33 34 37 33 33 30 29 28 31 30 27 29 29 29 29 29 30 30 30 30 30 30 30 30 30 30 30 30 31 30 31
48 48 44 43 42 45 45 46 47 46 42 40 39 37 37 38 38 38 40 38 38 37 38 40 42 40 33 32 31 30 28 28 28 28 29 29 28 28 28 29 31 32 33 32 32 32 32 34 34 35 36 34 35 35 36 36 33 30 31 30 29 26 27 31 31 29 30 30 30 30 30 30 30 30 30 30 32 31 31 30 30 30 30 29 27
47 47 48 48 47 48 46 45 46 43 42 38 38 39 37 38 41 43 38 35 32 33 37 40 40 30 35 33 31 31 28 27 28 28 28 29 28 28 28 27 28 30 31 33 37 40 32 31 35 35 33 32 34 37 35 34 32 31 32 31 31 30 30 30 30 31 30 30 30 30 30 30 31 30 30 32 30 30 29 29 29 28 27 25 25
47 48 49 48 49 48 45 45 43 43 41 38 36 34 37 39 40 39 42 40 37 33 36 39 33 32 32 31 31 30 28 27 28 28 27 28 28 28 28 27 27 28 32 38 38 40 38 36 34 30 31 37 38 32 31 33 33 32 32 31 31 31 31 30 31 31 30 30 30 30 30 30 30 30 30 29 29 28 27 27 26 25 24 24 24
46 48 47 45 46 44 45 44 43 43 43 40 38 37 37 38 41 41 42 42 36 33 40 38 33 31 29 30 30 28 27 27 26 26 28 28 28 28 27 28 28 30 35 39 39 40 37 34 32 36 38 40 39 38 36 35 34 32 31 31 31 31 31 31 31 31 31 30 30 30 30 30 29 29 29 27 26 25 24 25 24 24 24 23 24
46 46 47 47 47 47 48 47 46 43 38 39 41 42 39 40 42 47 46 45 39 41 40 38 34 30 29 28 26 24 27 26 25 25 28 28 27 27 27 29 31 36 36 35 37 38 37 34 34 34 36 39 39 38 37 37 36 34 33 32 31 31 31 31 31 31 30 29 29 29 29 29 28 27 24 24 23 22 24 23 23 25 24 23 22
46 47 46 46 45 44 45 46 42 41 40 40 41 42 40 40 43 45 45 45 45 44 41 37 38 35 31 32 30 26 23 25 28 24 27 28 26 27 30 30 31 36 36 36 37 36 34 34 34 34 35 36 37 35 33 33 32 32 31 30 29 29 30 31 31 29 29 29 28 28 28 26 27 24 24 22 22 24 23 23 21 23 22 22 22
45 44 43 43 43 42 42 43 42 41 40 40 40 41 41 41 42 41 41 44 43 40 36 35 36 36 31 34 31 28 24 22 33 32 30 29 28 27 29 34 34 34 37 37 37 35 35 35 35 36 35 36 35 33 30 27 25 24 24 24 24 23 24 29 26 24 25 26 27 27 26 25 25 23 25 23 24 24 22 22 22 22 22 22 22
45 43 43 43 42 42 42 42 41 39 40 39 40 41 41 40 40 40 40 40 39 37 35 36 33 31 31 34 34 33 29 27 29 32 32 33 34 36 36 35 34 36 36 35 35 35 34 35 34 34 34 33 32 30 27 25 23 20 18 20 23 25 26 25 20 20 23 26 27 27 25 25 24 22 22 23 23 22 21 22 22 22 22 23 23
48 47 46 45 44 41 41 41 40 41 41 40 39 40 39 40 40 39 39 38 39 36 34 34 32 31 31 32 31 30 28 26 29 31 31 31 32 34 34 35 36 36 35 34 34 35 35 34 33 32 32 31 29 28 26 24 22 20 20 22 24 25 26 25 23 24 26 29 28 25 24 24 23 22 23 24 22 21 21 21 21 22 22 22 23
47 47 47 46 45 45 43 41 40 41 41 40 39 38 38 39 39 39 38 37 38 36 33 33 31 31 31 31 30 29 27 24 25 29 29 29 31 37 38 37 36 35 35 34 33 33 33 33 32 30 30 29 28 26 25 24 21 21 22 23 24 24 25 26 26 26 26 26 28 24 23 23 23 21 22 23 20 21 21 21 22 22 22 21 21
44 46 46 47 47 46 46 45 45 45 44 40 40 39 37 38 38 38 38 37 36 35 32 33 31 29 28 28 28 27 26 24 24 29 29 29 38 39 37 36 35 36 35 34 33 32 31 30 29 28 28 27 26 25 22 22 22 23 23 23 24 24 24 25 25 25 26 25 26 23 22 24 22 22 22 23 20 20 23 23 21 19 20 20 21